Stena Europe — VSTA3 — position and weather

sailwx.info

Track history (hours):
 
Tides and Currents Weather Stations Pressure Air Temp Water Temp Dewpoint Dewpoint Depression Visibility Wind Speed Wind Dir Waves Ship Positions

Stena Europe

Operator: Stena Line

Last reported at 2017-Jul-25 18:03 UTC. Time now 2017-Jul-25 22:34 UTC.
Position N 52°11' W 005°55'.

Length 149 m; draft 5.9 m.

Type: Passenger vessel. MMSI: 235004539.

Date/timePositionNaut miles runAvg speedWind from/ knotsBaromVisibWave heightAir tempDewpointWater temp
2017-Jul-25 18:03N 52°11' W 005°55'218.1
2017-Jul-25 17:56N 52°11' W 005°59'818.5
2017-Jul-25 17:30N 52°14' W 006°11'611.4
2017-Jul-25 16:59N 52°15' W 006°20'0 0.0
2017-Jul-25 16:29N 52°15' W 006°20'0 0.0
2017-Jul-25 15:59N 52°15' W 006°20'0 0.3
2017-Jul-25 15:30N 52°15' W 006°20'713.3
2017-Jul-25 15:00N 52°13' W 006°10'1918.6
2017-Jul-25 14:00N 52°09' W 005°41'2318.6
2017-Jul-25 12:47N 52°03' W 005°05'5 1.6
2017-Jul-25 09:52N 52°02' W 004°58'1719.1
2017-Jul-25 08:59N 52°07' W 005°24'919.0
2017-Jul-25 08:30N 52°09' W 005°39'918.7
2017-Jul-25 08:00N 52°12' W 005°53'1018.9
2017-Jul-25 07:30N 52°15' W 006°08'815.8
2017-Jul-25 07:00N 52°15' W 006°20'0 0.4
2017-Jul-25 06:30N 52°15' W 006°20'0 0.0
2017-Jul-25 06:00N 52°15' W 006°20'0 0.0
2017-Jul-25 05:30N 52°15' W 006°20'0 0.0
2017-Jul-25 05:00N 52°15' W 006°20'0 0.0
2017-Jul-25 04:30N 52°15' W 006°20'0 0.0
2017-Jul-25 04:00N 52°15' W 006°20'0 0.0
2017-Jul-25 03:30N 52°15' W 006°20'0 0.2
2017-Jul-25 03:00N 52°15' W 006°20'510.9
2017-Jul-25 02:30N 52°14' W 006°12'612.9
2017-Jul-25 02:00N 52°12' W 006°02'713.5
2017-Jul-25 01:30N 52°11' W 005°51'713.1
2017-Jul-25 01:00N 52°10' W 005°40'1 0.2
2017-Jul-24 18:43N 52°09' W 005°38'618.0
2017-Jul-24 18:22N 52°10' W 005°48'817.9
2017-Jul-24 17:55N 52°12' W 006°01'818.3
2017-Jul-24 17:31N 52°14' W 006°13'5 9.2
2017-Jul-24 17:00N 52°15' W 006°20'31 3.8
2017-Jul-24 08:49N 52°07' W 005°32'1118.9
2017-Jul-24 08:15N 52°10' W 005°49'418.0
2017-Jul-24 08:00N 52°12' W 005°55'918.9
2017-Jul-24 07:31N 52°14' W 006°10'612.6
2017-Jul-24 07:00N 52°15' W 006°20'0 0.0
2017-Jul-24 06:29N 52°15' W 006°20'0 0.0
2017-Jul-24 05:59N 52°15' W 006°20'0 0.0
2017-Jul-24 05:29N 52°15' W 006°20'0 0.0
2017-Jul-24 04:59N 52°15' W 006°20'0 0.0
2017-Jul-24 04:29N 52°15' W 006°20'0 0.0
2017-Jul-24 03:59N 52°15' W 006°20'0 0.0
2017-Jul-24 03:26N 52°15' W 006°20'0 0.0
2017-Jul-24 03:00N 52°15' W 006°20'5 9.1
2017-Jul-24 02:30N 52°14' W 006°13'815.8
2017-Jul-24 02:00N 52°12' W 006°01'612.9
2017-Jul-24 01:30N 52°10' W 005°51'612.6
2017-Jul-24 01:00N 52°09' W 005°41'612.5
2017-Jul-24 00:30N 52°07' W 005°31'19 4.1
2017-Jul-23 19:52N 52°03' W 005°01'719.5
2017-Jul-23 19:30N 52°05' W 005°12'1019.6
2017-Jul-23 19:00N 52°07' W 005°27'1818.6
2017-Jul-23 18:01N 52°11' W 005°56'018.8
2017-Jul-23 18:00N 52°11' W 005°57'918.6
2017-Jul-23 17:31N 52°14' W 006°11'611.1
2017-Jul-23 17:00N 52°15' W 006°20'0 0.0
2017-Jul-23 16:30N 52°15' W 006°20'0 0.0
2017-Jul-23 16:00N 52°15' W 006°20'0 0.0
2017-Jul-23 15:30N 52°15' W 006°20'2 4.8
2017-Jul-23 15:00N 52°15' W 006°16'918.4
2017-Jul-23 14:30N 52°12' W 006°02'918.7
2017-Jul-23 14:00N 52°10' W 005°47'7 1.2
2017-Jul-23 08:34N 52°09' W 005°37'218.8
2017-Jul-23 08:29N 52°09' W 005°39'918.1
2017-Jul-23 08:00N 52°11' W 005°53'918.4
2017-Jul-23 07:30N 52°13' W 006°07'816.8
2017-Jul-23 07:00N 52°16' W 006°20'0 0.5
2017-Jul-23 06:30N 52°15' W 006°20'0 0.0
2017-Jul-23 06:00N 52°15' W 006°20'0 0.0
2017-Jul-23 05:30N 52°15' W 006°20'0 0.0
2017-Jul-23 05:00N 52°15' W 006°20'0 0.0
2017-Jul-23 04:30N 52°15' W 006°20'0 0.0
2017-Jul-23 03:57N 52°15' W 006°20'0 0.0
2017-Jul-23 03:30N 52°15' W 006°20'0 0.0
2017-Jul-23 03:01N 52°15' W 006°20'3 5.8
2017-Jul-23 02:30N 52°14' W 006°16'815.8
2017-Jul-23 02:00N 52°14' W 006°03'815.3
2017-Jul-23 01:31N 52°15' W 005°51'815.2
2017-Jul-23 01:00N 52°10' W 005°41'17 3.1
2017-Jul-22 19:36N 52°05' W 005°15'219.4
2017-Jul-22 19:29N 52°06' W 005°18'918.9
2017-Jul-22 19:00N 52°08' W 005°33'917.9
2017-Jul-22 18:30N 52°09' W 005°47'917.6
2017-Jul-22 18:00N 52°12' W 006°01'918.0
2017-Jul-22 17:30N 52°14' W 006°15'3 6.2
2017-Jul-22 16:58N 52°15' W 006°20'0 0.0
2017-Jul-22 16:28N 52°15' W 006°20'0 0.0
2017-Jul-22 16:01N 52°15' W 006°20'4 8.3
2017-Jul-22 15:30N 52°14' W 006°14'918.6
2017-Jul-22 15:00N 52°12' W 005°59'9 1.2
2017-Jul-22 07:27N 52°14' W 006°13'4 9.9
2017-Jul-22 07:00N 52°15' W 006°20'0 0.0
2017-Jul-22 06:30N 52°15' W 006°20'0 0.0
2017-Jul-22 06:00N 52°15' W 006°20'0 0.0
2017-Jul-22 05:30N 52°15' W 006°20'0 0.0
2017-Jul-22 05:00N 52°15' W 006°20'0 0.0
2017-Jul-22 04:30N 52°15' W 006°20'0 0.0
2017-Jul-22 04:00N 52°15' W 006°20'0 0.0
2017-Jul-22 03:30N 52°15' W 006°20'0 0.2
2017-Jul-22 03:00N 52°15' W 006°20'511.0
2017-Jul-22 02:30N 52°14' W 006°12'713.8
2017-Jul-22 02:00N 52°16' W 006°01'6 0.7
2017-Jul-21 17:30N 52°13' W 006°09'713.8
2017-Jul-21 17:00N 52°15' W 006°20'0 0.0
2017-Jul-21 16:31N 52°15' W 006°20'0 0.0
2017-Jul-21 16:00N 52°15' W 006°20'0 0.0
2017-Jul-21 15:31N 52°15' W 006°20'5 9.7
2017-Jul-21 15:00N 52°14' W 006°13'917.7
2017-Jul-21 14:31N 52°12' W 005°59'2 0.4
2017-Jul-21 07:36N 52°12' W 006°03'217.8
2017-Jul-21 07:30N 52°13' W 006°05'917.8
2017-Jul-21 07:01N 52°16' W 006°19'1 1.7
2017-Jul-21 06:29N 52°15' W 006°20'0 0.0
2017-Jul-21 05:59N 52°15' W 006°20'0 0.0
2017-Jul-21 05:29N 52°15' W 006°20'0 0.0
2017-Jul-21 04:59N 52°15' W 006°20'0 0.0
2017-Jul-21 04:29N 52°15' W 006°20'0 0.0
2017-Jul-21 03:59N 52°15' W 006°20'0 0.0
2017-Jul-21 03:30N 52°15' W 006°20'0 0.6
2017-Jul-21 03:00N 52°16' W 006°20'510.3
2017-Jul-21 02:30N 52°14' W 006°12'713.6
2017-Jul-21 02:01N 52°13' W 006°02'713.4
2017-Jul-21 01:30N 52°12' W 005°51'12 1.8
2017-Jul-20 18:47N 52°14' W 006°11'517.6
2017-Jul-20 18:30N 52°15' W 006°18'1 2.2
2017-Jul-20 18:00N 52°15' W 006°20'0 0.0
2017-Jul-20 17:30N 52°15' W 006°20'0 0.0
2017-Jul-20 17:00N 52°15' W 006°20'4 8.8
2017-Jul-20 16:30N 52°15' W 006°13'815.7
2017-Jul-20 16:00N 52°15' W 006°00'7 0.8
2017-Jul-20 07:24N 52°14' W 006°12'513.3
2017-Jul-20 07:00N 52°15' W 006°20'0 0.0
2017-Jul-20 06:30N 52°15' W 006°20'0 0.0
2017-Jul-20 06:00N 52°15' W 006°20'0 0.0
2017-Jul-20 05:30N 52°15' W 006°20'0 0.0
2017-Jul-20 05:00N 52°15' W 006°20'0 0.0
2017-Jul-20 04:30N 52°15' W 006°20'0 0.0
2017-Jul-20 04:00N 52°15' W 006°20'0 0.0
2017-Jul-20 03:30N 52°15' W 006°20'0 0.0
2017-Jul-20 03:00N 52°15' W 006°20'5 9.8
2017-Jul-20 02:30N 52°14' W 006°12'612.7
2017-Jul-20 02:00N 52°12' W 006°03'612.9
2017-Jul-20 01:30N 52°10' W 005°53'7 0.9
2017-Jul-19 17:44N 52°12' W 006°03'418.8
2017-Jul-19 17:30N 52°14' W 006°10'612.8
2017-Jul-19 17:00N 52°15' W 006°20'0 0.0
2017-Jul-19 16:30N 52°15' W 006°20'19 2.3
2017-Jul-19 08:04N 52°10' W 005°50'118.4
2017-Jul-19 08:00N 52°11' W 005°52'918.1
2017-Jul-19 07:30N 52°13' W 006°07'917.8
2017-Jul-19 07:00N 52°16' W 006°20'0 0.6
2017-Jul-19 06:30N 52°15' W 006°20'0 0.0
2017-Jul-19 06:00N 52°15' W 006°20'0 0.0
2017-Jul-19 05:30N 52°15' W 006°20'0 0.0
2017-Jul-19 05:00N 52°15' W 006°20'0 0.0
2017-Jul-19 04:30N 52°15' W 006°20'0 0.0
2017-Jul-19 04:00N 52°15' W 006°20'0 0.0
2017-Jul-19 03:29N 52°15' W 006°20'0 0.0
2017-Jul-19 03:00N 52°15' W 006°20'611.7
2017-Jul-19 02:30N 52°14' W 006°11'612.7
2017-Jul-19 02:00N 52°12' W 006°01'612.2
2017-Jul-19 01:30N 52°11' W 005°51'612.5
2017-Jul-19 01:00N 52°09' W 005°41'13 1.8
2017-Jul-18 17:55N 52°12' W 006°01'718.2
2017-Jul-18 17:30N 52°14' W 006°13'5 9.0
2017-Jul-18 17:01N 52°15' W 006°20'0 0.0
2017-Jul-18 16:30N 52°15' W 006°20'0 0.0
2017-Jul-18 16:01N 52°15' W 006°20'0 0.3
2017-Jul-18 15:31N 52°15' W 006°20'714.1
2017-Jul-18 15:00N 52°13' W 006°09'26 4.3
2017-Jul-18 08:56N 52°07' W 005°28'1017.8
2017-Jul-18 08:23N 52°10' W 005°44'717.4
2017-Jul-18 08:00N 52°11' W 005°54'917.7
2017-Jul-18 07:30N 52°13' W 006°08'815.3
2017-Jul-18 07:00N 52°15' W 006°20'0 0.0
2017-Jul-18 06:30N 52°15' W 006°20'0 0.0
2017-Jul-18 06:00N 52°15' W 006°20'0 0.0
2017-Jul-18 05:30N 52°15' W 006°20'0 0.0
2017-Jul-18 05:00N 52°15' W 006°20'0 0.0
2017-Jul-18 04:30N 52°15' W 006°20'0 0.0
2017-Jul-18 04:00N 52°15' W 006°20'0 0.0
2017-Jul-18 03:30N 52°15' W 006°20'0 0.0
2017-Jul-18 03:00N 52°15' W 006°20'510.6
2017-Jul-18 02:30N 52°14' W 006°12'714.2
2017-Jul-18 02:00N 52°12' W 006°01'611.4
2017-Jul-18 01:31N 52°11' W 005°52'1211.6
2017-Jul-18 00:30N 52°08' W 005°33'713.8
2017-Jul-18 00:00N 52°06' W 005°22'7 1.3
2017-Jul-17 18:47N 52°08' W 005°33'718.7
2017-Jul-17 18:24N 52°10' W 005°45'718.5
2017-Jul-17 18:01N 52°11' W 005°56'918.5
2017-Jul-17 17:31N 52°13' W 006°11'612.2
2017-Jul-17 17:00N 52°15' W 006°20'0 0.0
2017-Jul-17 16:30N 52°15' W 006°20'0 0.0
2017-Jul-17 16:00N 52°15' W 006°20'0 0.0
2017-Jul-17 15:30N 52°15' W 006°20'510.8
2017-Jul-17 15:00N 52°14' W 006°12'918.9
2017-Jul-17 14:30N 52°12' W 005°57'918.7
2017-Jul-17 14:00N 52°09' W 005°42'918.2
2017-Jul-17 13:30N 52°07' W 005°28'917.8
2017-Jul-17 13:01N 52°05' W 005°14'917.2
2017-Jul-17 12:30N 52°02' W 005°00'2 0.7
2017-Jul-17 09:58N 52°01' W 004°58'1317.3
2017-Jul-17 09:13N 52°05' W 005°18'617.9
2017-Jul-17 08:54N 52°07' W 005°26'717.7
2017-Jul-17 08:30N 52°08' W 005°38'917.5
2017-Jul-17 08:00N 52°11' W 005°52'917.5
2017-Jul-17 07:30N 52°12' W 006°05'918.4
2017-Jul-17 07:00N 52°16' W 006°19'1 1.1
2017-Jul-17 06:30N 52°15' W 006°20'0 0.0
2017-Jul-17 06:00N 52°15' W 006°20'0 0.0
2017-Jul-17 05:30N 52°15' W 006°20'0 0.0
2017-Jul-17 05:00N 52°15' W 006°20'0 0.0
2017-Jul-17 04:30N 52°15' W 006°20'0 0.0
2017-Jul-17 04:00N 52°15' W 006°20'0 0.0
2017-Jul-17 03:30N 52°15' W 006°20'0 0.0
2017-Jul-17 03:00N 52°15' W 006°20'510.4
2017-Jul-17 02:30N 52°14' W 006°12'713.7
2017-Jul-17 02:01N 52°12' W 006°01'713.9
2017-Jul-17 01:31N 52°10' W 005°50'11 1.6
2017-Jul-16 18:43N 52°08' W 005°33'418.4
2017-Jul-16 18:30N 52°09' W 005°40'918.4
2017-Jul-16 18:00N 52°11' W 005°54'918.3
2017-Jul-16 17:31N 52°13' W 006°09'714.6
2017-Jul-16 17:00N 52°15' W 006°20'0 0.0
2017-Jul-16 16:30N 52°15' W 006°20'0 0.0
2017-Jul-16 16:00N 52°15' W 006°20'0 0.0
2017-Jul-16 15:30N 52°15' W 006°20'3 6.4
2017-Jul-16 15:00N 52°14' W 006°15'918.4
2017-Jul-16 14:30N 52°12' W 006°01'1118.6
2017-Jul-16 13:55N 52°09' W 005°44'1018.2
2017-Jul-16 13:24N 52°07' W 005°28'817.5
2017-Jul-16 12:56N 52°05' W 005°16'19 4.1
2017-Jul-16 08:09N 52°10' W 005°46'318.0
2017-Jul-16 08:00N 52°11' W 005°50'918.1
2017-Jul-16 07:30N 52°12' W 006°05'918.5
2017-Jul-16 07:00N 52°16' W 006°19'1 1.7
2017-Jul-16 06:30N 52°15' W 006°20'0 0.0
2017-Jul-16 06:00N 52°15' W 006°20'0 0.0
2017-Jul-16 05:30N 52°15' W 006°20'0 0.0
2017-Jul-16 05:00N 52°15' W 006°20'0 0.0
2017-Jul-16 04:30N 52°15' W 006°20'0 0.0
2017-Jul-16 04:00N 52°15' W 006°20'0 0.0
2017-Jul-16 03:30N 52°15' W 006°20'0 0.0
2017-Jul-16 03:00N 52°15' W 006°20'4 8.1
2017-Jul-16 02:30N 52°14' W 006°14'816.1
2017-Jul-16 02:00N 52°12' W 006°01'815.7
2017-Jul-16 01:29N 52°10' W 005°48'3 0.4
2017-Jul-15 18:27N 52°09' W 005°44'  
Track history (hours):
 
Tides and Currents Weather Stations Pressure Air Temp Water Temp Dewpoint Dewpoint Depression Visibility Wind Speed Wind Dir Waves Ship Positions

Stena Europe

Operator: Stena Line

Last reported at 2017-Jul-25 18:03 UTC. Time now 2017-Jul-25 22:34 UTC.
Position N 52°11' W 005°55'.

Length 149 m; draft 5.9 m.

Type: Passenger vessel. MMSI: 235004539.

Date/timePositionNaut miles runAvg speedWind from/ knotsBaromVisibWave heightAir tempDewpointWater temp
2017-Jul-25 18:03N 52°11' W 005°55'218.1
2017-Jul-25 17:56N 52°11' W 005°59'818.5
2017-Jul-25 17:30N 52°14' W 006°11'611.4
2017-Jul-25 16:59N 52°15' W 006°20'0 0.0
2017-Jul-25 16:29N 52°15' W 006°20'0 0.0
2017-Jul-25 15:59N 52°15' W 006°20'0 0.3
2017-Jul-25 15:30N 52°15' W 006°20'713.3
2017-Jul-25 15:00N 52°13' W 006°10'1918.6
2017-Jul-25 14:00N 52°09' W 005°41'2318.6
2017-Jul-25 12:47N 52°03' W 005°05'5 1.6
2017-Jul-25 09:52N 52°02' W 004°58'1719.1
2017-Jul-25 08:59N 52°07' W 005°24'919.0
2017-Jul-25 08:30N 52°09' W 005°39'918.7
2017-Jul-25 08:00N 52°12' W 005°53'1018.9
2017-Jul-25 07:30N 52°15' W 006°08'815.8
2017-Jul-25 07:00N 52°15' W 006°20'0 0.4
2017-Jul-25 06:30N 52°15' W 006°20'0 0.0
2017-Jul-25 06:00N 52°15' W 006°20'0 0.0
2017-Jul-25 05:30N 52°15' W 006°20'0 0.0
2017-Jul-25 05:00N 52°15' W 006°20'0 0.0
2017-Jul-25 04:30N 52°15' W 006°20'0 0.0
2017-Jul-25 04:00N 52°15' W 006°20'0 0.0
2017-Jul-25 03:30N 52°15' W 006°20'0 0.2
2017-Jul-25 03:00N 52°15' W 006°20'510.9
2017-Jul-25 02:30N 52°14' W 006°12'612.9
2017-Jul-25 02:00N 52°12' W 006°02'713.5
2017-Jul-25 01:30N 52°11' W 005°51'713.1
2017-Jul-25 01:00N 52°10' W 005°40'1 0.2
2017-Jul-24 18:43N 52°09' W 005°38'618.0
2017-Jul-24 18:22N 52°10' W 005°48'817.9
2017-Jul-24 17:55N 52°12' W 006°01'818.3
2017-Jul-24 17:31N 52°14' W 006°13'5 9.2
2017-Jul-24 17:00N 52°15' W 006°20'31 3.8
2017-Jul-24 08:49N 52°07' W 005°32'1118.9
2017-Jul-24 08:15N 52°10' W 005°49'418.0
2017-Jul-24 08:00N 52°12' W 005°55'918.9
2017-Jul-24 07:31N 52°14' W 006°10'612.6
2017-Jul-24 07:00N 52°15' W 006°20'0 0.0
2017-Jul-24 06:29N 52°15' W 006°20'0 0.0
2017-Jul-24 05:59N 52°15' W 006°20'0 0.0
2017-Jul-24 05:29N 52°15' W 006°20'0 0.0
2017-Jul-24 04:59N 52°15' W 006°20'0 0.0
2017-Jul-24 04:29N 52°15' W 006°20'0 0.0
2017-Jul-24 03:59N 52°15' W 006°20'0 0.0
2017-Jul-24 03:26N 52°15' W 006°20'0 0.0
2017-Jul-24 03:00N 52°15' W 006°20'5 9.1
2017-Jul-24 02:30N 52°14' W 006°13'815.8
2017-Jul-24 02:00N 52°12' W 006°01'612.9
2017-Jul-24 01:30N 52°10' W 005°51'612.6
2017-Jul-24 01:00N 52°09' W 005°41'612.5
2017-Jul-24 00:30N 52°07' W 005°31'19 4.1
2017-Jul-23 19:52N 52°03' W 005°01'719.5
2017-Jul-23 19:30N 52°05' W 005°12'1019.6
2017-Jul-23 19:00N 52°07' W 005°27'1818.6
2017-Jul-23 18:01N 52°11' W 005°56'018.8
2017-Jul-23 18:00N 52°11' W 005°57'918.6
2017-Jul-23 17:31N 52°14' W 006°11'611.1
2017-Jul-23 17:00N 52°15' W 006°20'0 0.0
2017-Jul-23 16:30N 52°15' W 006°20'0 0.0
2017-Jul-23 16:00N 52°15' W 006°20'0 0.0
2017-Jul-23 15:30N 52°15' W 006°20'2 4.8
2017-Jul-23 15:00N 52°15' W 006°16'918.4
2017-Jul-23 14:30N 52°12' W 006°02'918.7
2017-Jul-23 14:00N 52°10' W 005°47'7 1.2
2017-Jul-23 08:34N 52°09' W 005°37'218.8
2017-Jul-23 08:29N 52°09' W 005°39'918.1
2017-Jul-23 08:00N 52°11' W 005°53'918.4
2017-Jul-23 07:30N 52°13' W 006°07'816.8
2017-Jul-23 07:00N 52°16' W 006°20'0 0.5
2017-Jul-23 06:30N 52°15' W 006°20'0 0.0
2017-Jul-23 06:00N 52°15' W 006°20'0 0.0
2017-Jul-23 05:30N 52°15' W 006°20'0 0.0
2017-Jul-23 05:00N 52°15' W 006°20'0 0.0
2017-Jul-23 04:30N 52°15' W 006°20'0 0.0
2017-Jul-23 03:57N 52°15' W 006°20'0 0.0
2017-Jul-23 03:30N 52°15' W 006°20'0 0.0
2017-Jul-23 03:01N 52°15' W 006°20'3 5.8
2017-Jul-23 02:30N 52°14' W 006°16'815.8
2017-Jul-23 02:00N 52°14' W 006°03'815.3
2017-Jul-23 01:31N 52°15' W 005°51'815.2
2017-Jul-23 01:00N 52°10' W 005°41'17 3.1
2017-Jul-22 19:36N 52°05' W 005°15'219.4
2017-Jul-22 19:29N 52°06' W 005°18'918.9
2017-Jul-22 19:00N 52°08' W 005°33'917.9
2017-Jul-22 18:30N 52°09' W 005°47'917.6
2017-Jul-22 18:00N 52°12' W 006°01'918.0
2017-Jul-22 17:30N 52°14' W 006°15'3 6.2
2017-Jul-22 16:58N 52°15' W 006°20'0 0.0
2017-Jul-22 16:28N 52°15' W 006°20'0 0.0
2017-Jul-22 16:01N 52°15' W 006°20'4 8.3
2017-Jul-22 15:30N 52°14' W 006°14'918.6
2017-Jul-22 15:00N 52°12' W 005°59'9 1.2
2017-Jul-22 07:27N 52°14' W 006°13'4 9.9
2017-Jul-22 07:00N 52°15' W 006°20'0 0.0
2017-Jul-22 06:30N 52°15' W 006°20'0 0.0
2017-Jul-22 06:00N 52°15' W 006°20'0 0.0
2017-Jul-22 05:30N 52°15' W 006°20'0 0.0
2017-Jul-22 05:00N 52°15' W 006°20'0 0.0
2017-Jul-22 04:30N 52°15' W 006°20'0 0.0
2017-Jul-22 04:00N 52°15' W 006°20'0 0.0
2017-Jul-22 03:30N 52°15' W 006°20'0 0.2
2017-Jul-22 03:00N 52°15' W 006°20'511.0
2017-Jul-22 02:30N 52°14' W 006°12'713.8
2017-Jul-22 02:00N 52°16' W 006°01'6 0.7
2017-Jul-21 17:30N 52°13' W 006°09'713.8
2017-Jul-21 17:00N 52°15' W 006°20'0 0.0
2017-Jul-21 16:31N 52°15' W 006°20'0 0.0
2017-Jul-21 16:00N 52°15' W 006°20'0 0.0
2017-Jul-21 15:31N 52°15' W 006°20'5 9.7
2017-Jul-21 15:00N 52°14' W 006°13'917.7
2017-Jul-21 14:31N 52°12' W 005°59'2 0.4
2017-Jul-21 07:36N 52°12' W 006°03'217.8
2017-Jul-21 07:30N 52°13' W 006°05'917.8
2017-Jul-21 07:01N 52°16' W 006°19'1 1.7
2017-Jul-21 06:29N 52°15' W 006°20'0 0.0
2017-Jul-21 05:59N 52°15' W 006°20'0 0.0
2017-Jul-21 05:29N 52°15' W 006°20'0 0.0
2017-Jul-21 04:59N 52°15' W 006°20'0 0.0
2017-Jul-21 04:29N 52°15' W 006°20'0 0.0
2017-Jul-21 03:59N 52°15' W 006°20'0 0.0
2017-Jul-21 03:30N 52°15' W 006°20'0 0.6
2017-Jul-21 03:00N 52°16' W 006°20'510.3
2017-Jul-21 02:30N 52°14' W 006°12'713.6
2017-Jul-21 02:01N 52°13' W 006°02'713.4
2017-Jul-21 01:30N 52°12' W 005°51'12 1.8
2017-Jul-20 18:47N 52°14' W 006°11'517.6
2017-Jul-20 18:30N 52°15' W 006°18'1 2.2
2017-Jul-20 18:00N 52°15' W 006°20'0 0.0
2017-Jul-20 17:30N 52°15' W 006°20'0 0.0
2017-Jul-20 17:00N 52°15' W 006°20'4 8.8
2017-Jul-20 16:30N 52°15' W 006°13'815.7
2017-Jul-20 16:00N 52°15' W 006°00'7 0.8
2017-Jul-20 07:24N 52°14' W 006°12'513.3
2017-Jul-20 07:00N 52°15' W 006°20'0 0.0
2017-Jul-20 06:30N 52°15' W 006°20'0 0.0
2017-Jul-20 06:00N 52°15' W 006°20'0 0.0
2017-Jul-20 05:30N 52°15' W 006°20'0 0.0
2017-Jul-20 05:00N 52°15' W 006°20'0 0.0
2017-Jul-20 04:30N 52°15' W 006°20'0 0.0
2017-Jul-20 04:00N 52°15' W 006°20'0 0.0
2017-Jul-20 03:30N 52°15' W 006°20'0 0.0
2017-Jul-20 03:00N 52°15' W 006°20'5 9.8
2017-Jul-20 02:30N 52°14' W 006°12'612.7
2017-Jul-20 02:00N 52°12' W 006°03'612.9
2017-Jul-20 01:30N 52°10' W 005°53'7 0.9
2017-Jul-19 17:44N 52°12' W 006°03'418.8
2017-Jul-19 17:30N 52°14' W 006°10'612.8
2017-Jul-19 17:00N 52°15' W 006°20'0 0.0
2017-Jul-19 16:30N 52°15' W 006°20'19 2.3
2017-Jul-19 08:04N 52°10' W 005°50'118.4
2017-Jul-19 08:00N 52°11' W 005°52'918.1
2017-Jul-19 07:30N 52°13' W 006°07'917.8
2017-Jul-19 07:00N 52°16' W 006°20'0 0.6
2017-Jul-19 06:30N 52°15' W 006°20'0 0.0
2017-Jul-19 06:00N 52°15' W 006°20'0 0.0
2017-Jul-19 05:30N 52°15' W 006°20'0 0.0
2017-Jul-19 05:00N 52°15' W 006°20'0 0.0
2017-Jul-19 04:30N 52°15' W 006°20'0 0.0
2017-Jul-19 04:00N 52°15' W 006°20'0 0.0
2017-Jul-19 03:29N 52°15' W 006°20'0 0.0
2017-Jul-19 03:00N 52°15' W 006°20'611.7
2017-Jul-19 02:30N 52°14' W 006°11'612.7
2017-Jul-19 02:00N 52°12' W 006°01'612.2
2017-Jul-19 01:30N 52°11' W 005°51'612.5
2017-Jul-19 01:00N 52°09' W 005°41'13 1.8
2017-Jul-18 17:55N 52°12' W 006°01'718.2
2017-Jul-18 17:30N 52°14' W 006°13'5 9.0
2017-Jul-18 17:01N 52°15' W 006°20'0 0.0
2017-Jul-18 16:30N 52°15' W 006°20'0 0.0
2017-Jul-18 16:01N 52°15' W 006°20'0 0.3
2017-Jul-18 15:31N 52°15' W 006°20'714.1
2017-Jul-18 15:00N 52°13' W 006°09'26 4.3
2017-Jul-18 08:56N 52°07' W 005°28'1017.8
2017-Jul-18 08:23N 52°10' W 005°44'717.4
2017-Jul-18 08:00N 52°11' W 005°54'917.7
2017-Jul-18 07:30N 52°13' W 006°08'815.3
2017-Jul-18 07:00N 52°15' W 006°20'0 0.0
2017-Jul-18 06:30N 52°15' W 006°20'0 0.0
2017-Jul-18 06:00N 52°15' W 006°20'0 0.0
2017-Jul-18 05:30N 52°15' W 006°20'0 0.0
2017-Jul-18 05:00N 52°15' W 006°20'0 0.0
2017-Jul-18 04:30N 52°15' W 006°20'0 0.0
2017-Jul-18 04:00N 52°15' W 006°20'0 0.0
2017-Jul-18 03:30N 52°15' W 006°20'0 0.0
2017-Jul-18 03:00N 52°15' W 006°20'510.6
2017-Jul-18 02:30N 52°14' W 006°12'714.2
2017-Jul-18 02:00N 52°12' W 006°01'611.4
2017-Jul-18 01:31N 52°11' W 005°52'1211.6
2017-Jul-18 00:30N 52°08' W 005°33'713.8
2017-Jul-18 00:00N 52°06' W 005°22'7 1.3
2017-Jul-17 18:47N 52°08' W 005°33'718.7
2017-Jul-17 18:24N 52°10' W 005°45'718.5
2017-Jul-17 18:01N 52°11' W 005°56'918.5
2017-Jul-17 17:31N 52°13' W 006°11'612.2
2017-Jul-17 17:00N 52°15' W 006°20'0 0.0
2017-Jul-17 16:30N 52°15' W 006°20'0 0.0
2017-Jul-17 16:00N 52°15' W 006°20'0 0.0
2017-Jul-17 15:30N 52°15' W 006°20'510.8
2017-Jul-17 15:00N 52°14' W 006°12'918.9
2017-Jul-17 14:30N 52°12' W 005°57'918.7
2017-Jul-17 14:00N 52°09' W 005°42'918.2
2017-Jul-17 13:30N 52°07' W 005°28'917.8
2017-Jul-17 13:01N 52°05' W 005°14'917.2
2017-Jul-17 12:30N 52°02' W 005°00'2 0.7
2017-Jul-17 09:58N 52°01' W 004°58'1317.3
2017-Jul-17 09:13N 52°05' W 005°18'617.9
2017-Jul-17 08:54N 52°07' W 005°26'717.7
2017-Jul-17 08:30N 52°08' W 005°38'917.5
2017-Jul-17 08:00N 52°11' W 005°52'917.5
2017-Jul-17 07:30N 52°12' W 006°05'918.4
2017-Jul-17 07:00N 52°16' W 006°19'1 1.1
2017-Jul-17 06:30N 52°15' W 006°20'0 0.0
2017-Jul-17 06:00N 52°15' W 006°20'0 0.0
2017-Jul-17 05:30N 52°15' W 006°20'0 0.0
2017-Jul-17 05:00N 52°15' W 006°20'0 0.0
2017-Jul-17 04:30N 52°15' W 006°20'0 0.0
2017-Jul-17 04:00N 52°15' W 006°20'0 0.0
2017-Jul-17 03:30N 52°15' W 006°20'0 0.0
2017-Jul-17 03:00N 52°15' W 006°20'510.4
2017-Jul-17 02:30N 52°14' W 006°12'713.7
2017-Jul-17 02:01N 52°12' W 006°01'713.9
2017-Jul-17 01:31N 52°10' W 005°50'11 1.6
2017-Jul-16 18:43N 52°08' W 005°33'418.4
2017-Jul-16 18:30N 52°09' W 005°40'918.4
2017-Jul-16 18:00N 52°11' W 005°54'918.3
2017-Jul-16 17:31N 52°13' W 006°09'714.6
2017-Jul-16 17:00N 52°15' W 006°20'0 0.0
2017-Jul-16 16:30N 52°15' W 006°20'0 0.0
2017-Jul-16 16:00N 52°15' W 006°20'0 0.0
2017-Jul-16 15:30N 52°15' W 006°20'3 6.4
2017-Jul-16 15:00N 52°14' W 006°15'918.4
2017-Jul-16 14:30N 52°12' W 006°01'1118.6
2017-Jul-16 13:55N 52°09' W 005°44'1018.2
2017-Jul-16 13:24N 52°07' W 005°28'817.5
2017-Jul-16 12:56N 52°05' W 005°16'19 4.1
2017-Jul-16 08:09N 52°10' W 005°46'318.0
2017-Jul-16 08:00N 52°11' W 005°50'918.1
2017-Jul-16 07:30N 52°12' W 006°05'918.5
2017-Jul-16 07:00N 52°16' W 006°19'1 1.7
2017-Jul-16 06:30N 52°15' W 006°20'0 0.0
2017-Jul-16 06:00N 52°15' W 006°20'0 0.0
2017-Jul-16 05:30N 52°15' W 006°20'0 0.0
2017-Jul-16 05:00N 52°15' W 006°20'0 0.0
2017-Jul-16 04:30N 52°15' W 006°20'0 0.0
2017-Jul-16 04:00N 52°15' W 006°20'0 0.0
2017-Jul-16 03:30N 52°15' W 006°20'0 0.0
2017-Jul-16 03:00N 52°15' W 006°20'4 8.1
2017-Jul-16 02:30N 52°14' W 006°14'816.1
2017-Jul-16 02:00N 52°12' W 006°01'815.7
2017-Jul-16 01:29N 52°10' W 005°48'3 0.4
2017-Jul-15 18:27N 52°09' W 005°44'  

Dump ship's entire track history